Date String (YYYY-MM-DD hh:mm:ss) UTC,Instrument flags,Ambient pressure (hPa),Sample flow (lpm),Bypass flow (lpm),Sample temperature (°C),Ambient temperature (°C),ASC tube jacket temperature (°C),LED temperature (°C),Box temperature (°C),Sample RH (%),Span deviation,Mass concentration (μg/m³),Mass concentration (μg/m³),Mass concentration (μg/m³)
DateTimeUTC,F1_M11,P_M11,Q1_M11,Q2_M11,T1_M11,T2_M11,T3_M11,T4_M11,T5_M11,U1_M11,ZSPAN_M11,X0_M11,X2_M11,X1_M11
2021-10-13 13:00:00,,0813.8,4.99,0.00,22.0,22.6,00.0,31.0,24.0,14.9,0000.0,0003.44,0001.10,0000.48
2021-10-13 13:01:00,,0813.9,5.00,0.00,22.0,22.4,00.0,31.1,24.0,16.2,0000.0,0003.28,0001.12,0000.51
2021-10-13 13:02:00,,0814.1,5.01,0.00,22.0,22.1,00.0,31.1,23.9,15.9,0000.0,0003.13,0001.12,0000.53
2021-10-13 13:03:00,,0813.9,4.99,0.00,22.0,21.9,00.0,31.1,23.8,14.4,0000.0,0003.03,0001.09,0000.52
2021-10-13 13:04:00,,0814.0,5.01,0.00,22.0,21.8,00.0,31.1,23.8,14.1,0000.0,0002.89,0001.05,0000.51
2021-10-13 13:05:00,,0814.0,5.00,0.00,22.0,21.5,00.0,31.1,23.7,17.1,0000.0,0002.96,0001.09,0000.53
2021-10-13 13:06:00,,0814.1,5.00,0.00,21.9,21.4,00.0,31.1,23.6,17.9,0000.0,0003.23,0001.21,0000.57
2021-10-13 13:07:00,,0813.8,5.00,0.00,21.9,21.3,00.0,31.1,23.6,16.2,0000.0,0003.51,0001.29,0000.60
2021-10-13 13:08:00,,0814.0,4.99,0.00,21.8,21.2,00.0,31.0,23.5,13.8,0000.0,0003.63,0001.31,0000.60
2021-10-13 13:09:00,,0813.7,5.00,0.00,21.8,21.2,00.0,31.0,23.5,13.3,0000.0,0003.52,0001.32,0000.60
2021-10-13 13:10:00,,0813.8,5.00,0.00,21.8,21.1,00.0,31.0,23.6,13.1,0000.0,0003.80,0001.37,0000.59
2021-10-13 13:11:00,,0813.6,5.00,0.00,21.8,21.1,00.0,31.0,23.5,13.0,0000.0,0004.93,0001.38,0000.57
2021-10-13 13:12:00,,0813.6,5.00,0.00,21.8,21.1,00.0,31.0,23.5,13.1,0000.0,0005.66,0001.35,0000.54
2021-10-13 13:13:00,,0813.9,5.00,0.00,21.8,21.0,00.0,31.0,23.5,12.8,0000.0,0006.00,0001.32,0000.48
2021-10-13 13:14:00,,0814.1,5.01,0.00,21.8,21.0,00.0,31.0,23.5,13.1,0000.0,0007.06,0001.37,0000.47
2021-10-13 13:15:00,,0813.7,4.98,0.00,21.8,21.0,00.0,31.0,23.5,13.3,0000.0,0007.09,0001.36,0000.46
2021-10-13 13:16:00,,0813.7,5.01,0.00,21.8,21.0,00.0,31.0,23.5,13.1,0000.0,0007.45,0001.35,0000.43
2021-10-13 13:17:00,,0813.6,5.00,0.00,21.8,21.1,00.0,31.0,23.6,13.1,0000.0,0007.90,0001.26,0000.38
2021-10-13 13:18:00,,0813.6,5.00,0.00,21.9,21.9,00.0,31.1,23.8,12.8,0000.0,0007.99,0001.21,0000.33
2021-10-13 13:19:00,,0813.4,5.00,0.00,22.1,22.8,00.0,31.1,24.2,12.7,0000.0,0008.56,0001.22,0000.33
2021-10-13 13:20:00,,0813.5,4.99,0.00,22.2,23.0,00.0,31.2,24.4,12.5,0000.0,0008.73,0001.22,0000.33
2021-10-13 13:21:00,,0813.7,4.99,0.00,22.3,22.8,00.0,31.2,24.3,12.8,0000.0,0008.60,0001.20,0000.33
2021-10-13 13:22:00,,0814.0,5.00,0.00,22.3,22.5,00.0,31.2,24.3,13.3,0000.0,0008.03,0001.24,0000.34
2021-10-13 13:23:00,,0813.9,5.00,0.00,22.3,22.2,00.0,31.2,24.1,14.3,0000.0,0007.62,0001.28,0000.37
2021-10-13 13:24:00,,0814.2,5.01,0.00,22.2,22.0,00.0,31.2,24.0,13.2,0000.0,0007.64,0001.35,0000.38
2021-10-13 13:25:00,,0813.9,4.99,0.00,22.2,21.9,00.0,31.3,24.0,12.6,0000.0,0006.84,0001.36,0000.40
2021-10-13 13:26:00,,0813.9,5.00,0.00,22.2,21.8,00.0,31.3,24.0,12.2,0000.0,0007.13,0001.45,0000.40
2021-10-13 13:27:00,,0814.1,4.99,0.00,22.2,21.7,00.0,31.3,23.9,12.6,0000.0,0006.66,0001.39,0000.39
2021-10-13 13:28:00,,0814.0,5.00,0.00,22.2,21.6,00.0,31.3,23.9,12.7,0000.0,0005.77,0001.38,0000.38
2021-10-13 13:29:00,,0814.1,5.00,0.00,22.2,21.5,00.0,31.3,23.8,12.6,0000.0,0005.22,0001.37,0000.38
2021-10-13 13:30:00,,0814.1,5.00,0.00,22.1,21.4,00.0,31.3,23.8,12.7,0000.0,0004.09,0001.33,0000.37
2021-10-13 13:31:00,,0814.0,5.00,0.00,22.1,21.4,00.0,31.3,23.8,12.8,0000.0,0003.73,0001.31,0000.36
2021-10-13 13:32:00,,0814.0,4.99,0.00,22.1,21.4,00.0,31.3,23.8,12.9,0000.0,0003.51,0001.25,0000.37
2021-10-13 13:33:00,,0814.0,5.00,0.00,22.1,21.4,00.0,31.3,23.7,12.4,0000.0,0003.33,0001.17,0000.36
2021-10-13 13:34:00,,0814.0,5.00,0.00,22.1,21.3,00.0,31.3,23.7,12.7,0000.0,0003.07,0001.08,0000.33
2021-10-13 13:35:00,,0814.2,5.00,0.00,22.1,21.3,00.0,31.2,23.7,13.1,0000.0,0002.69,0000.98,0000.32
2021-10-13 13:36:00,,0814.1,4.99,0.00,22.1,21.3,00.0,31.2,23.8,14.1,0000.0,0002.64,0000.95,0000.32
2021-10-13 13:37:00,,0814.4,5.01,0.00,22.1,21.3,00.0,31.2,23.8,15.2,0000.0,0002.47,0000.93,0000.34
2021-10-13 13:38:00,,0814.2,5.00,0.00,22.1,21.3,00.0,31.2,23.8,13.4,0000.0,0002.47,0000.94,0000.36
2021-10-13 13:39:00,,0814.4,5.01,0.00,22.1,21.3,00.0,31.2,23.8,12.9,0000.0,0004.90,0000.94,0000.38
2021-10-13 13:40:00,,0814.1,5.00,0.00,22.1,21.3,00.0,31.2,23.8,12.9,0000.0,0005.68,0000.91,0000.39
2021-10-13 13:41:00,,0814.1,4.99,0.00,22.1,21.3,00.0,31.3,23.8,12.9,0000.0,0006.52,0000.93,0000.40
2021-10-13 13:42:00,,0814.3,5.01,0.00,22.1,21.3,00.0,31.2,23.8,14.6,0000.0,0006.84,0000.98,0000.41
2021-10-13 13:43:00,,0814.2,5.01,0.00,22.1,21.3,00.0,31.2,23.7,15.9,0000.0,0007.09,0001.01,0000.44
2021-10-13 13:44:00,,0814.2,5.00,0.00,22.1,21.2,00.0,31.2,23.7,15.4,0000.0,0007.76,0001.02,0000.46
2021-10-13 13:45:00,,0814.1,5.01,0.00,22.1,21.2,00.0,31.2,23.7,13.5,0000.0,0007.82,0001.03,0000.47
2021-10-13 13:46:00,,0814.0,4.99,0.00,22.1,21.2,00.0,31.2,23.7,12.7,0000.0,0008.09,0001.07,0000.48
2021-10-13 13:47:00,,0814.0,4.99,0.00,22.1,21.3,00.0,31.3,23.8,12.6,0000.0,0008.43,0001.06,0000.48
2021-10-13 13:48:00,,0813.9,5.00,0.00,22.1,21.8,00.0,31.3,24.0,12.5,0000.0,0008.42,0000.99,0000.46
2021-10-13 13:49:00,,0813.8,5.00,0.00,22.3,22.8,00.0,31.3,24.3,12.4,0000.0,0008.23,0001.00,0000.46
2021-10-13 13:50:00,,0814.0,4.99,0.00,22.5,23.5,00.0,31.4,24.6,12.0,0000.0,0007.44,0001.06,0000.45
2021-10-13 13:51:00,,0813.9,5.02,0.00,22.6,23.3,00.0,31.4,24.7,12.1,0000.0,0006.88,0001.11,0000.46
2021-10-13 13:52:00,,0814.1,5.00,0.00,22.6,23.0,00.0,31.5,24.6,11.7,0000.0,0006.34,0001.10,0000.46
2021-10-13 13:53:00,,0814.1,4.99,0.00,22.6,22.8,00.0,31.5,24.5,12.0,0000.0,0007.46,0001.02,0000.45
2021-10-13 13:54:00,,0814.1,5.00,0.00,22.6,22.6,00.0,31.5,24.4,12.2,0000.0,0007.60,0000.97,0000.44
2021-10-13 13:55:00,,0814.2,5.00,0.00,22.6,22.5,00.0,31.5,24.4,12.2,0000.0,0006.81,0000.97,0000.43
2021-10-13 13:56:00,,0814.0,5.01,0.00,22.6,22.3,00.0,31.5,24.3,12.4,0000.0,0006.78,0000.95,0000.42
2021-10-13 13:57:00,,0814.5,5.00,0.00,22.5,22.2,00.0,31.5,24.3,12.0,0000.0,0006.49,0000.93,0000.41
2021-10-13 13:58:00,,0814.7,5.00,0.00,22.5,22.0,00.0,31.5,24.2,15.2,0000.0,0005.90,0000.93,0000.42
2021-10-13 13:59:00,,0814.8,4.99,0.00,22.4,21.9,00.0,31.5,24.1,15.9,0000.0,0005.94,0001.00,0000.45
